Location: ???? ??? ????
(31.1982°N, 31.6448°E)
Time: 09:50:06
(UTC+00:00)

Daily predictions for brighter satellites

Satellite Brightness Start Highest point End
(mag) Time Altitude Azimuth Time Altitude Azimuth Time Altitude Azimuth
ADEOS Rocket 3.3 16:31:37 10° N 16:37:33 70° WNW 16:43:04 10° SSW
Meteor 1-16 Rocket 4.2 16:33:58 10° S 16:39:12 56° E 16:44:36 10° NNE
Cosmos 1437 3.6 16:39:30 10° NNE 16:42:07 27° E 16:44:43 10° SE
CSL-04 Debris 4.2 16:40:06 10° SSE 16:45:34 78° ENE 16:51:02 10° N
Cosmos 407 Rocket 3.4 16:42:36 10° S 16:47:41 64° ESE 16:52:45 10° NNE
Cosmos 2074 Rocket 4.3 16:44:47 10° N 16:50:49 46° E 16:56:49 10° SSE
IRIDIUM 103 4.5 16:49:34 10° N 16:54:40 53° E 16:59:44 10° SSE
Cosmos 1992 Rocket 4.1 16:49:28 10° NNW 16:54:41 82° WSW 16:59:52 10° SSE
Aureole 1 Rocket 4.3 16:46:50 10° S 16:54:48 82° ESE 17:01:11 10° NNE
ISS -1.7 16:52:01 10° WNW 16:54:51 25° SW 16:57:40 10° S
Meteor 2-10 4.4 16:51:33 10° SSW 16:56:57 77° W 17:02:35 10° N
USA 186 3.4 16:55:09 11° ESE 16:57:21 18° ENE 16:59:39 10° NNE
Cosmos 2369 Rocket 2.4 16:51:59 10° NNW 16:57:40 78° WSW 17:03:15 10° SSE
Aureole 2 Rocket 4.3 16:54:43 10° NW 16:57:45 31° WSW 17:00:37 10° SSW
SJ-6B 4.4 16:57:53 12° ESE 17:00:25 19° ENE 17:03:20 10° NNE
SEDSat Delta rocket 4.0 16:57:37 10° W 17:03:04 50° SSW 17:07:18 13° SE
Cosmos 1023 Rocket 4.4 16:58:32 10° S 17:03:40 68° ESE 17:08:47 10° NNE
Cosmos 1726 3.3 17:01:42 10° SSW 17:05:18 48° W 17:08:55 10° N
CSL-04 Rocket 4.0 17:01:00 10° S 17:06:14 68° WSW 17:11:30 10° NNW
SJ-11-01 4.3 17:06:43 10° SSE 17:11:21 63° ENE 17:16:01 10° N
Hubble Space Telescope 1.0 17:08:36 10° WSW 17:12:38 57° S 17:15:20 20° ESE
IRIDIUM 106 4.3 17:07:43 10° N 17:12:57 83° E 17:18:09 10° S
Cosmos 1954 Rocket 4.1 17:08:19 10° S 17:13:23 50° ESE 17:18:25 10° NNE
Cosmos 1656 Rocket 3.7 17:08:24 10° NNW 17:13:58 64° ENE 17:19:26 10° SSE
YAOGAN 1 4.3 17:10:30 10° SSW 17:14:26 35° W 17:18:24 10° NNW
Cosmos 1908 3.3 17:13:58 10° S 17:17:49 80° W 17:21:42 10° N
SL-8 R/B 4.0 17:16:12 10° NW 17:20:56 64° SW 17:24:36 16° SE
MONITOR-E 4.4 17:23:46 34° E 17:23:51 34° ENE 17:26:18 10° N
Cosmos 1340 Rocket 2.7 17:20:48 10° S 17:24:50 81° E 17:28:53 10° N
GEOS 3 Rocket 4.2 17:21:55 20° ESE 17:24:55 39° NE 17:29:43 10° NNW
Cosmos 1703 3.2 17:21:15 10° N 17:25:12 68° E 17:29:02 11° SSE
ARGOS 3.3 17:20:38 11° SSE 17:25:44 52° ENE 17:30:57 10° N
CZ-2C R/B 3.2 17:23:50 10° NE 17:28:25 31° E 17:32:01 15° SSE
MOS 1 4.3 17:24:26 10° SSE 17:29:52 59° ENE 17:35:25 10° N
USA 234 3.8 17:27:52 10° ENE 17:33:43 34° SE 17:39:31 10° S
Cosmos 1328 3.7 17:30:44 10° N 17:34:44 89° E 17:38:21 12° S
STARLINK-43 3.4 17:32:56 10° SSW 17:36:29 48° SE 17:37:21 39° E
Cosmos 1461 3.7 17:32:08 10° NNW 17:36:29 40° ENE 17:37:56 32° E
Cosmos 2058 Rocket 3.1 17:32:21 10° S 17:36:51 85° W 17:41:22 10° N
ATLAS 2AS CENTAUR R/B 2.8 17:31:16 10° NNW 17:38:35 66° ENE 17:42:42 25° SE
Meteor 2-17 Rocket 4.4 17:37:37 10° N 17:43:48 78° E 17:49:51 10° S
Cosmos 921 Rocket 3.3 17:41:03 10° N 17:45:02 41° ENE 17:45:23 40° E
H-2A R/B 2.2 17:42:32 10° S 17:47:45 75° WSW 17:52:51 10° NNW
ASTRO E2 4.3 17:46:18 10° SSW 17:48:22 21° S 17:48:22 21° S
Ariane Rocket 3.5 17:46:14 10° S 17:51:13 59° WSW 17:56:12 10° NNW
SL-08 RB Rocket 3.6 17:49:51 36° SSE 17:51:38 69° ENE 17:56:12 10° N
APEX 3.9 17:48:37 10° NNW 17:54:26 86° WSW 17:56:28 35° SSE
CZ-2C R/B 3.8 17:49:52 10° N 17:54:31 80° WNW 17:59:02 10° SSW
Cosmos 2341 Rocket 4.2 17:49:09 10° N 17:55:22 52° E 17:57:42 35° SE
FREGAT/IRIS 3.7 17:56:13 34° WSW 17:56:32 35° W 17:59:04 10° NNW
Meteor 1-11 4.2 17:51:08 10° N 17:56:51 82° W 18:01:19 17° S
GPS 2-04 Rocket1 3.0 17:57:01 10° W 18:01:00 65° NNW 18:01:44 53° NE
Resurs 01 Rocket 2.8 18:03:34 29° NE 18:03:34 29° NE 18:06:23 10° N
Cosmos 1850 Rocket 3.9 18:04:52 46° SSE 18:06:10 61° ESE 18:11:16 10° NNE
CZ-2C R/B 3.8 18:04:27 12° S 18:08:47 47° W 18:13:22 10° NNW
Cosmos 962 Rocket 4.3 18:06:50 10° N 18:12:58 82° E 18:15:21 40° SSE
Cosmos 2181 Rocket 3.8 18:08:44 17° S 18:13:38 80° E 18:19:50 10° N
SL-8 Rocket 4.1 18:09:11 10° N 18:15:23 54° E 18:15:57 53° ESE
Cosmos 1300 4.4 18:25:34 21° SW 18:27:20 31° W 18:30:46 10° NNW
Cosmos 2366 rocket 4.2 18:24:03 10° N 18:29:26 53° ENE 18:29:26 53° ENE
COSMOS 2455 2.7 18:28:48 10° NNW 18:34:51 85° WSW 18:35:15 78° S
In-Cosmos 22 Rocket 4.4 18:31:11 10° N 18:36:11 61° NE 18:36:11 61° NE
Hubble Space Telescope 3.3 18:49:40 10° W 18:50:40 17° W 18:50:40 17° W
COSMOS 2406 4.0 18:57:26 31° WSW 18:59:44 49° WNW 19:05:15 10° N
USA 234 3.9 19:10:26 10° NNE 19:16:44 52° NW 19:23:01 10° WSW
CZ-4C R/B 4.2 19:44:44 10° NNW 19:49:11 31° NNE 19:49:11 31° NNE
ATLAS 5 CENTAUR R/B 4.1 19:46:04 10° WSW 20:28:19 18° ESE 20:43:44 10° ESE
